Location: Arleux
(50.3632°N, 2.8721°E)
Time: 18:55:11
(UTC+00:00)

Cosmos 1331 Rocket - Pass Details

Date: 15 December 2019
Orbit: 749 x 779 km, 74.0° (Epoch: 19 January)

Event Time Altitude Azimuth Distance (km) Brightness Sun altitude
Rises 05:47:46 0° 211° (SSW) 3,187 7.1 -17.0°
Reaches altitude 10° 05:50:07 10° 215° (SW) 2,269 6.3 -16.7°
Maximum altitude 05:55:14 65° 297° (WNW) 832 3.9 -15.9°
Drops below altitude 10° 06:00:25 10° 20° (NNE) 2,300 6.5 -15.1°
Sets 06:02:50 0° 23° (NNE) 3,235 7.3 -14.7°
